Weather in Lavsya

Russia / Ryazan Oblast     55°12′02″N   41°10′31″E
temp.,
°C
wind,
m/s
gust,
m/s
humid.,
%
clouds,
%
prec.,
mm/h
press.,
hPa
HPBL,
m
7 march, sun
sun700:00−13wsw239627 0.0 101444
03:00−14sw369514 0.0 1012105
06:00−13ssw499233 0.0 1009248
09:00−8ssw7158267 0.0 1005811
12:00−6ssw71492100 0.9 10011120
15:00−4sw71493100 2.7 9961119
18:00−3sw61395100 1.5 994955
21:00−4nnw51080100 3.6 993592
8 march, mon
mon800:00−9wsw239585 0.1 99474
03:00−9wsw4119589 0.1 996398
06:00−10wsw399596 0.1 996300
09:00−8sw379498 0.3 996420
12:00−5w3689100 1.4 997656
15:00−5nw587498 2.3 10001266
18:00−8nw39892 0.1 1003238
21:00−12nw23951 0.1 100665
9 march, tue
tue900:00−15nw239717 0.0 100830
03:00−16nw229857 0.0 101025
06:00−15nnw259799 0.1 1011159
09:00−14nnw369395 0.2 1013334
12:00−11nnw348899 0.1 1014607
15:00−11nnw458799 0.1 1015703
18:00−14nnw4892100 0.1 1017499
21:00−19nnw389794 0.1 1020228
10 march, wed
wed1000:00−21nnw379978 0.0 1021173
03:00−24nnw379979 0.0 1023149
06:00−26nnw379819 0.0 1024146
09:00−23nnw36949 0.0 1026258
12:00−17nnw358516 0.0 1027453
15:00−14nw35818 0.0 1027719
18:00−18nw239290 0.0 102740
21:00−22nnw229344 0.0 102920
11 march, thu
thu1100:00−24nw12940 0.0 102920
03:00−25wnw11940 0.0 103020
06:00−25wnw11940 0.0 103120
09:00−19w12870 0.0 1031164
12:00−13wsw22780 0.0 1031406
15:00−10sw23760 0.0 1030685
18:00−14s239216 0.0 103029
21:00−18s23948 0.0 103144